TimeCDT,TemperatureF,Dew PointF,Humidity,Sea Level PressureIn,VisibilityMPH,Wind Direction,Wind SpeedMPH,Gust SpeedMPH,PrecipitationIn,Events,Conditions,WindDirDegrees,DateUTC
12:15 AM,37.4,35.6,93,30.28,5.0,North,17.3,-,0.01,Rain,Light Rain,350,2012-10-04 05:15:00
12:35 AM,35.6,33.8,93,30.29,5.0,North,16.1,23.0,0.02,Rain,Light Rain,350,2012-10-04 05:35:00
12:55 AM,35.6,33.8,93,30.29,6.0,North,17.3,24.2,0.03,Rain,Light Rain,350,2012-10-04 05:55:00
1:15 AM,35.6,33.8,93,30.30,6.0,North,15.0,20.7,N/A,Rain,Light Rain,350,2012-10-04 06:15:00
1:35 AM,35.6,33.8,93,30.30,6.0,NNW,12.7,16.1,0.01,Rain,Light Rain,340,2012-10-04 06:35:00
1:55 AM,35.6,33.8,93,30.30,7.0,North,17.3,20.7,0.02,Rain,Light Rain,350,2012-10-04 06:55:00
2:15 AM,35.6,33.8,93,30.30,7.0,NNW,12.7,-,N/A,Rain,Light Rain,340,2012-10-04 07:15:00
2:35 AM,35.6,33.8,93,30.31,8.0,NNW,12.7,20.7,N/A,Rain,Light Rain,340,2012-10-04 07:35:00
2:55 AM,35.6,33.8,93,30.31,9.0,North,15.0,21.9,N/A,,Scattered Clouds,350,2012-10-04 07:55:00
3:15 AM,35.6,32.0,87,30.30,10.0,North,12.7,20.7,N/A,,Mostly Cloudy,350,2012-10-04 08:15:00
3:35 AM,37.4,32.0,81,30.31,10.0,NNW,13.8,19.6,N/A,,Mostly Cloudy,340,2012-10-04 08:35:00
3:55 AM,37.4,32.0,81,30.31,10.0,North,16.1,20.7,N/A,,Mostly Cloudy,350,2012-10-04 08:55:00
4:15 AM,35.6,32.0,87,30.31,10.0,NNW,13.8,21.9,N/A,,Mostly Cloudy,340,2012-10-04 09:15:00
4:35 AM,35.6,32.0,87,30.31,10.0,NNW,16.1,-,N/A,,Mostly Cloudy,340,2012-10-04 09:35:00
4:55 AM,35.6,32.0,87,30.31,10.0,North,-9999.0,-,N/A,,Overcast,0,2012-10-04 09:55:00
5:15 AM,35.6,32.0,87,30.31,10.0,NNW,11.5,16.1,N/A,,Overcast,340,2012-10-04 10:15:00
5:35 AM,35.6,32.0,87,30.31,10.0,NNW,11.5,-,N/A,,Overcast,340,2012-10-04 10:35:00
5:55 AM,35.6,32.0,87,30.31,10.0,North,-9999.0,-,N/A,,Overcast,0,2012-10-04 10:55:00
6:15 AM,35.6,32.0,87,30.31,10.0,North,-9999.0,-,N/A,,Overcast,0,2012-10-04 11:15:00
6:35 AM,35.6,32.0,87,30.32,10.0,NNW,11.5,23.0,N/A,,Overcast,340,2012-10-04 11:35:00
6:55 AM,35.6,32.0,87,30.33,10.0,NNW,13.8,-,N/A,,Overcast,340,2012-10-04 11:55:00
7:15 AM,35.6,32.0,87,30.33,10.0,NNW,13.8,19.6,N/A,,Overcast,340,2012-10-04 12:15:00
7:35 AM,35.6,32.0,87,30.33,10.0,NNW,10.4,-,N/A,,Overcast,330,2012-10-04 12:35:00
7:55 AM,33.8,30.2,87,30.33,10.0,NNW,9.2,-,N/A,,Overcast,330,2012-10-04 12:55:00
8:15 AM,32.0,30.2,93,30.34,10.0,NNW,8.1,-,N/A,,Overcast,330,2012-10-04 13:15:00
8:35 AM,33.8,30.2,87,30.34,10.0,NW,10.4,-,N/A,,Overcast,320,2012-10-04 13:35:00
8:55 AM,33.8,30.2,87,30.34,10.0,NNW,12.7,17.3,N/A,,Overcast,330,2012-10-04 13:55:00
9:15 AM,35.6,30.2,81,30.34,10.0,NNW,13.8,18.4,N/A,,Overcast,340,2012-10-04 14:15:00
9:35 AM,35.6,30.2,81,30.35,10.0,NNW,15.0,23.0,N/A,,Overcast,340,2012-10-04 14:35:00
9:55 AM,35.6,28.4,75,30.35,10.0,NNW,18.4,-,N/A,,Overcast,330,2012-10-04 14:55:00
10:15 AM,35.6,28.4,75,30.36,10.0,NNW,13.8,-,N/A,,Overcast,340,2012-10-04 15:15:00
10:35 AM,35.6,28.4,75,30.36,10.0,NNW,18.4,25.3,N/A,,Overcast,330,2012-10-04 15:35:00
10:55 AM,37.4,30.2,75,30.36,10.0,NNW,17.3,23.0,N/A,,Overcast,330,2012-10-04 15:55:00
11:15 AM,37.4,30.2,75,30.36,10.0,NNW,17.3,23.0,N/A,,Overcast,330,2012-10-04 16:15:00
11:35 AM,37.4,30.2,75,30.35,10.0,NNW,17.3,-,N/A,,Overcast,330,2012-10-04 16:35:00
11:55 AM,37.4,30.2,75,30.35,10.0,NNW,13.8,23.0,N/A,,Mostly Cloudy,340,2012-10-04 16:55:00
12:15 PM,39.2,28.4,65,30.35,10.0,NNW,15.0,-,N/A,,Overcast,340,2012-10-04 17:15:00
12:35 PM,39.2,28.4,65,30.35,10.0,NNW,18.4,21.9,N/A,,Overcast,330,2012-10-04 17:35:00
12:55 PM,39.2,28.4,65,30.35,10.0,NNW,18.4,23.0,N/A,,Overcast,330,2012-10-04 17:55:00
1:35 PM,39.2,26.6,61,30.35,10.0,NNW,18.4,21.9,N/A,,Overcast,330,2012-10-04 18:35:00
1:55 PM,39.2,28.4,65,30.35,10.0,NNW,15.0,20.7,N/A,,Overcast,330,2012-10-04 18:55:00
2:15 PM,39.2,28.4,65,30.34,10.0,NNW,13.8,19.6,N/A,,Overcast,330,2012-10-04 19:15:00
2:35 PM,39.2,26.6,61,30.34,10.0,NNW,15.0,-,N/A,,Overcast,330,2012-10-04 19:35:00
2:55 PM,39.2,28.4,65,30.34,10.0,NNW,17.3,21.9,N/A,,Overcast,330,2012-10-04 19:55:00
3:15 PM,39.2,26.6,61,30.34,10.0,NNW,16.1,-,N/A,,Overcast,330,2012-10-04 20:15:00
3:35 PM,39.2,26.6,61,30.34,10.0,NNW,18.4,-,N/A,,Overcast,330,2012-10-04 20:35:00
3:55 PM,39.2,26.6,61,30.34,10.0,NNW,12.7,20.7,N/A,,Overcast,330,2012-10-04 20:55:00
4:15 PM,39.2,26.6,61,30.34,10.0,NNW,17.3,-,N/A,,Overcast,330,2012-10-04 21:15:00
4:35 PM,39.2,26.6,61,30.34,10.0,NNW,16.1,21.9,N/A,,Overcast,340,2012-10-04 21:35:00
4:55 PM,39.2,26.6,61,30.34,10.0,NNW,12.7,20.7,N/A,,Overcast,330,2012-10-04 21:55:00
5:15 PM,39.2,26.6,61,30.35,10.0,NNW,15.0,19.6,N/A,,Overcast,340,2012-10-04 22:15:00
5:55 PM,39.2,26.6,61,30.34,10.0,NNW,16.1,19.6,N/A,,Overcast,340,2012-10-04 22:55:00
6:15 PM,37.4,26.6,65,30.34,10.0,NNW,13.8,-,N/A,,Overcast,330,2012-10-04 23:15:00
6:35 PM,37.4,26.6,65,30.34,10.0,NNW,11.5,-,N/A,,Overcast,330,2012-10-04 23:35:00
6:55 PM,37.4,26.6,65,30.34,10.0,NNW,15.0,20.7,N/A,,Overcast,330,2012-10-04 23:55:00
7:15 PM,37.4,24.8,60,30.35,10.0,NNW,11.5,-,N/A,,Overcast,330,2012-10-05 00:15:00
7:35 PM,37.4,24.8,60,30.35,10.0,NNW,10.4,-,N/A,,Overcast,330,2012-10-05 00:35:00
7:55 PM,35.6,24.8,65,30.35,10.0,NW,8.1,-,N/A,,Overcast,320,2012-10-05 00:55:00
8:15 PM,35.6,24.8,65,30.35,10.0,NW,8.1,-,N/A,,Mostly Cloudy,320,2012-10-05 01:15:00
8:35 PM,33.8,24.8,70,30.35,10.0,NW,8.1,-,N/A,,Mostly Cloudy,310,2012-10-05 01:35:00
8:55 PM,33.8,24.8,70,30.36,10.0,NW,6.9,-,N/A,,Mostly Cloudy,320,2012-10-05 01:55:00
9:15 PM,35.6,24.8,65,30.36,10.0,NNW,5.8,-,N/A,,Overcast,330,2012-10-05 02:15:00
9:35 PM,33.8,24.8,70,30.36,10.0,NW,4.6,-,N/A,,Overcast,320,2012-10-05 02:35:00
9:55 PM,33.8,24.8,70,30.35,10.0,WNW,3.5,-,N/A,,Overcast,300,2012-10-05 02:55:00
10:15 PM,32.0,24.8,75,30.35,10.0,WNW,4.6,-,N/A,,Mostly Cloudy,300,2012-10-05 03:15:00
10:35 PM,32.0,24.8,75,30.35,10.0,West,5.8,-,N/A,,Partly Cloudy,280,2012-10-05 03:35:00
10:55 PM,30.2,24.8,80,30.35,10.0,West,4.6,-,N/A,,Partly Cloudy,260,2012-10-05 03:55:00
11:15 PM,30.2,24.8,80,30.35,10.0,West,6.9,-,N/A,,Clear,260,2012-10-05 04:15:00
11:35 PM,28.4,24.8,86,30.35,10.0,WSW,6.9,-,N/A,,Clear,240,2012-10-05 04:35:00
11:55 PM,28.4,24.8,86,30.35,10.0,SW,8.1,-,N/A,,Clear,230,2012-10-05 04:55:00